Flag for Austria Weather past 2 weeks in Fürstenfeld, Styria, Austria

Now
60 °F

Cool.


Feels Like: 60 °F
Forecast: 53 / 63 °F
Wind: 1 mph from Northwest

Location: Murska Sobota

Current Time: Sep 4, 2015 at 3:53:32 AM

Latest Report: Sep 4, 2015 at 3:00 AM


Visibility: N/A

Pressure: 29.89 "Hg

Humidity: 96%

Dew point: 59 °F

Location of FürstenfeldLocation

Historic Weather in Fürstenfeld — Graph

°F

Fürstenfeld temperature yesterday

Maximum temperature yesterday: 77 °F (at 4:00 PM)
Minimum temperature yesterday: 58 °F (at 4:00 AM)
Average temperature yesterday: 67 °F

Past Weeks' High & Low Weather Summary

 TemperatureHumidityPressure
High91 °F (Aug 29, 2:00 PM)99% (Aug 27, 7:00 AM)30.24 "Hg (Aug 27, 7:00 AM)
Low53 °F (Aug 27, 6:00 AM)27% (Sep 1, 3:00 PM)29.75 "Hg (Sep 1, 6:00 PM)
Average69 °F73%30.04 "Hg
* Reported Aug 20 2:00 AM — Sep 4 2:00 AM, Fürstenfeld, Weather by CustomWeather, © 2015

Note: Actual official high and low records may vary slightly from our data, if they occured in-between our weather recording intervals... More about our weather records

Advertising

Fürstenfeld weather history for previous 24 hours

 ConditionsComfort  
Time TempWeatherWind HumidityBarometerVisibility
2:00 AM
Fri, Sep 4
60 °FCool.2 mph94%29.88 "HgN/A
1:00 AM63 °FMild.2 mph89%29.87 "HgN/A
12:00 AM64 °FMild.2 mph89%29.86 "HgN/A
11:00 PM
Thu, Sep 3
66 °FMild.1 mph84%29.86 "HgN/A
10:00 PM68 °FMild.1 mph81%29.87 "HgN/A
9:00 PM69 °FMild.1 mph76%29.87 "HgN/A
8:00 PM71 °FMild.1 mph72%29.86 "HgN/A
7:00 PM73 °FMild.1 mph65%29.85 "HgN/A
6:00 PM74 °FMild.2 mph61%29.86 "HgN/A
5:00 PM75 °FMild.2 mph59%29.87 "HgN/A
4:00 PM77 °FMild.1 mph55%29.88 "HgN/A
3:00 PM76 °FOvercast.2 mph53%29.90 "Hg12 mi
2:00 PM75 °FMild.1 mph53%29.92 "HgN/A
1:00 PM72 °FMild.2 mph59%29.94 "HgN/A
12:00 PM70 °FMild.2 mph62%29.97 "HgN/A
11:00 AM67 °FMild.1 mph66%29.98 "HgN/A
10:00 AM67 °FMild.2 mph72%29.99 "HgN/A
9:00 AM65 °FMild.1 mph76%29.98 "HgN/A
8:00 AM62 °FCool.No wind91%29.98 "HgN/A
7:00 AM60 °FCool.1 mph96%29.98 "HgN/A
6:00 AM60 °FCool.1 mph94%29.97 "HgN/A
5:00 AM59 °FCool.2 mph95%29.98 "HgN/A
4:00 AM58 °FCool.1 mph94%29.98 "HgN/A
3:00 AM60 °FCool.No wind90%29.98 "HgN/A
Weather by CustomWeather, © 2015

See weather overviewHow to use our weather pages